Retour au catalogue

COSMOS 397 DEB *

ActifLEO
NORAD 5531·DEBRIS·🇷🇺 Russia

Lancé Feb 25, 1971 depuis Baikonur Cosmodrome

Loading…

Prochains Passages (prochaines 24 heures)

TLE

FraisSource: Space-Track

Époque: Sep 14, 2026, 10:41 UTC

1 05531U 71015BV  26257.44553909  .00000953  00000-0  33232-3 0  9992
2 05531  66.6629 314.5102 0034108 317.6817  42.1654 14.39332518865769

Suivez COSMOS 397 DEB * en temps réel avec AllMySat

Download on the App Store